Simultaneous Nadir Overpasses (SNOs) Predictions

Prediction of SNOs between AURA and NPP Satellite Orbit:

Table of predicted SNOs for the next 14.0 days since TLE Epoch: 1/7/2023
Index Date (AURA) Time (AURA) Lat,Lon (AURA) SZA (AURA ) Date (NPP) Time (NPP) Lat,Lon (NPP) SZA (NPP ) Distance(km) Time Diff (sec)
1 01/07/2023 02:52:59 79.32, 32.80 114.87 01/07/2023 02:52:13 79.33, 32.94 114.88 3.11 46
2 01/07/2023 03:42:21 -79.52,-158.23 65.41 01/07/2023 03:42:53 -79.51,-158.27 65.43 0.89 32
3 01/09/2023 19:09:31 79.38, 149.10 114.48 01/09/2023 19:09:08 79.39, 149.17 114.48 1.69 23
4 01/09/2023 19:58:53 -79.58, -41.90 65.81 01/09/2023 19:59:48 -79.57, -42.00 65.83 2.18 55
5 01/12/2023 10:38:36 -73.97, 76.73 59.68 01/12/2023 10:37:23 -74.21, 75.07 59.33 57.50 73
6 01/12/2023 11:26:04 79.41, -94.83 114.08 01/12/2023 11:26:05 79.41, -94.89 114.09 1.27 1
7 01/15/2023 02:53:16 -79.22,-147.86 66.06 01/15/2023 02:52:24 -79.22,-147.94 66.01 1.95 52
8 01/15/2023 03:42:34 79.52, 21.80 113.51 01/15/2023 03:42:59 79.53, 21.83 113.49 0.61 25
9 01/17/2023 19:09:46 -79.30, -31.46 66.63 01/17/2023 19:09:19 -79.30, -31.54 66.60 1.72 27
10 01/17/2023 19:59:04 79.60, 138.21 112.94 01/17/2023 19:59:54 79.60, 138.26 112.90 0.94 50
11 01/20/2023 11:26:14 -79.39, 84.97 67.26 01/20/2023 11:26:13 -79.38, 84.84 67.23 3.05 1



Historial Predications of SNOs between AURA and NPP
